[[{"header":{"parameterUnit":"m.s-1","parameterCategory":1,"la1":30.2992,"la2":30.254,"lo1":-89.0895,"lo2":-89.0443,"dy":0.0025,"dx":0.0025,"nx":19,"ny":19,"refTime":"2026-05-01T03:00:00:Z","depth":0,"parameterNumber":2,"parameterNumberName":"U-component_of_WINDS"},"data":[0,0,0,-1.7294,-1.7295,-1.7333,-1.7334,-1.7407,-1.7408,0,0,0,0,0,0,0,0,0,0,0,-1.7295,-1.7296,-1.7294,-1.7296,-1.7333,-1.7334,-1.7407,-1.7408,0,0,0,0,0,0,0,0,0,0,0,-1.7295,-1.7296,-1.7297,-1.7296,-1.7333,-1.7334,-1.7407,-1.737,0,0,0,0,0,0,0,0,0,0,-1.7329,-1.7341,-1.7296,-1.7297,-1.7296,-1.7333,-1.7334,-1.7368,-1.7372,-1.74,0,-1.7424,0,-1.7417,-1.7414,-1.7414,0,0,0,-1.7288,-1.7337,-1.7336,-1.7297,-1.7297,-1.7333,-1.7314,-1.737,-1.7375,-1.7406,-1.7425,-1.7427,-1.7418,-1.7415,-1.7415,-1.7592,-1.7593,0,0,-1.7286,-1.7309,-1.7333,-1.734,-1.7332,-1.7313,-1.7315,-1.7373,-1.7397,-1.7425,-1.7428,-1.7419,-1.7415,-1.7416,-1.7591,-1.7592,0,0,0,-1.7285,-1.7308,-1.7305,-1.7338,-1.7342,-1.7314,-1.7317,-1.7394,-1.7391,-1.7429,-1.742,-1.7416,-1.7417,-1.759,-1.7592,-1.7675,0,0,0,-1.7283,-1.7308,-1.7305,-1.732,-1.7341,-1.7368,-1.7338,-1.7387,-1.7393,-1.742,-1.7416,-1.7418,-1.7588,-1.7591,-1.767,-1.7713,0,0,0,-1.7289,-1.7308,-1.7317,-1.7321,-1.7338,-1.7367,-1.7366,-1.7388,-1.7388,-1.7415,-1.7418,-1.7587,-1.759,-1.7665,-1.7705,-1.7768,0,0,0,-1.7303,-1.7392,-1.7319,-1.7416,-1.7338,-1.7416,-1.7366,-1.7423,-1.7456,-1.7416,-1.7588,-1.7591,-1.7664,-1.77,-1.7764,-1.7829,-1.7857,0,0,-1.7429,-1.7408,-1.7463,-1.7399,-1.7496,-1.7408,-1.7519,-1.7527,-1.7509,-1.7566,-1.757,-1.7672,-1.7704,-1.7767,-1.7999,-1.8022,0,0,0,-1.7512,-1.7552,-1.7572,-1.7603,-1.7609,-1.7619,-1.7607,-1.761,-1.7657,-1.7542,-1.7709,-1.7728,-1.7764,-1.7794,-1.7813,-1.7845,-1.7605,-1.7605,-1.7604,-1.7729,-1.7698,-1.7788,-1.7762,-1.7792,-1.7777,-1.78,-1.7803,-1.7764,-1.7804,-1.7823,-1.7967,-1.8003,-1.8017,-1.805,-1.7851,-1.7851,-1.7851,-1.7851,-1.7915,-1.7969,-1.7912,-1.798,-1.7947,-1.8005,-1.7994,-1.7965,-1.8016,-1.795,-1.798,-1.7916,-1.8043,-1.807,-1.7857,-1.7856,-1.7856,-1.7855,-1.7855,-1.8058,-1.8079,-1.8078,-1.8119,-1.8154,-1.8124,-1.8175,-1.8143,-1.8114,-1.8143,-1.8161,-1.816,-1.8158,-1.8153,-1.8153,-1.8154,-1.8154,-1.8155,-1.8155,-1.8209,-1.8205,-1.825,-1.8263,-1.8278,-1.8295,-1.828,-1.8295,-1.8305,-1.8278,-1.8278,-1.8239,-1.8058,-1.8017,-1.8163,-1.8161,-1.816,-1.816,-1.8159,-1.8418,-1.8364,-1.8435,-1.845,-1.8463,-1.8501,-1.8457,-1.8492,-1.8499,-1.8526,-1.8478,-1.8348,-1.8327,-1.8311,-1.8277,-1.8481,-1.8481,-1.8481,-1.8481,-1.8542,-1.8525,-1.859,-1.8617,-1.8639,-1.8606,-1.8691,-1.868,-1.8661,-1.8665,-1.8629,-1.8579,-1.8564,-1.8551,-1.853,-1.8498,-1.8754,-1.8755,-1.8755,-1.867,-1.8654,-1.8731,-1.8708,-1.8715,-1.8723,-1.8802,-1.8838,-1.8805,-1.8765,-1.8668,-1.8656,-1.8575,-1.8549,-1.8513,-1.8482,-1.8421,0,0]},{"header":{"parameterUnit":"m.s-1","parameterCategory":1,"la1":30.2992,"la2":30.254,"lo1":-89.0895,"lo2":-89.0443,"dy":0.0025,"dx":0.0025,"nx":19,"ny":19,"refTime":"2026-05-01T03:00:00:Z","depth":0,"parameterNumber":3,"parameterNumberName":"V-component_of_WINDS"},"data":[0,0,0,-6.1309,-6.1309,-6.1268,-6.1267,-6.1239,-6.1239,0,0,0,0,0,0,0,0,0,0,0,-6.1338,-6.1339,-6.1309,-6.1309,-6.1268,-6.1267,-6.1239,-6.1239,0,0,0,0,0,0,0,0,0,0,0,-6.1338,-6.1339,-6.1339,-6.1309,-6.1268,-6.1267,-6.1239,-6.1261,0,0,0,0,0,0,0,0,0,0,-6.1297,-6.134,-6.1338,-6.1339,-6.1309,-6.1268,-6.1267,-6.1262,-6.126,-6.1268,0,-6.1282,0,-6.126,-6.1239,-6.1239,0,0,0,-6.1296,-6.1342,-6.1316,-6.1339,-6.1309,-6.1268,-6.1283,-6.126,-6.1258,-6.1266,-6.1282,-6.128,-6.126,-6.1239,-6.1239,-6.1335,-6.1336,0,0,-6.1299,-6.1339,-6.1317,-6.1315,-6.1325,-6.1284,-6.1282,-6.1258,-6.1278,-6.1281,-6.1279,-6.1259,-6.1239,-6.1239,-6.1334,-6.1335,0,0,0,-6.1314,-6.1342,-6.1315,-6.1317,-6.1308,-6.1283,-6.128,-6.1279,-6.1267,-6.1278,-6.1259,-6.1239,-6.1239,-6.1332,-6.1334,-6.1425,0,0,0,-6.1314,-6.135,-6.1317,-6.1342,-6.1309,-6.1293,-6.1302,-6.1268,-6.1264,-6.1259,-6.1239,-6.1238,-6.1331,-6.1333,-6.142,-6.1461,0,0,0,-6.1335,-6.1352,-6.1352,-6.1344,-6.1328,-6.1293,-6.1279,-6.1267,-6.1254,-6.1239,-6.1238,-6.133,-6.1333,-6.1415,-6.1453,-6.1497,0,0,0,-6.1369,-6.1435,-6.1355,-6.142,-6.1329,-6.135,-6.1279,-6.1292,-6.129,-6.1239,-6.1331,-6.1334,-6.1414,-6.1449,-6.1492,-6.154,-6.1564,0,0,-6.1474,-6.1449,-6.1484,-6.1411,-6.1457,-6.1353,-6.1411,-6.1371,-6.1331,-6.1335,-6.1337,-6.1422,-6.1453,-6.1496,-6.1687,-6.1707,0,0,0,-6.1531,-6.1557,-6.156,-6.156,-6.1531,-6.1508,-6.1455,-6.1439,-6.144,-6.1342,-6.1448,-6.1466,-6.1489,-6.151,-6.1526,-6.1543,-6.1346,-6.1345,-6.1345,-6.1739,-6.1685,-6.1738,-6.168,-6.1681,-6.1624,-6.1619,-6.1587,-6.1533,-6.1559,-6.156,-6.1683,-6.1709,-6.1721,-6.1739,-6.1581,-6.1582,-6.1582,-6.1582,-6.1887,-6.1914,-6.1839,-6.1865,-6.1807,-6.1826,-6.1773,-6.1733,-6.1742,-6.1678,-6.1696,-6.163,-6.1744,-6.1756,-6.1588,-6.1587,-6.1587,-6.1586,-6.1586,-6.2016,-6.2019,-6.2,-6.1993,-6.1994,-6.1931,-6.1943,-6.1889,-6.1839,-6.1857,-6.185,-6.1848,-6.1838,-6.1858,-6.1858,-6.1859,-6.1859,-6.1859,-6.1859,-6.2157,-6.2132,-6.2149,-6.2123,-6.2115,-6.2097,-6.2039,-6.2029,-6.2004,-6.1964,-6.1964,-6.1905,-6.1766,-6.1731,-6.1866,-6.1865,-6.1864,-6.1863,-6.1863,-6.2325,-6.2278,-6.2305,-6.2298,-6.226,-6.2263,-6.2195,-6.2179,-6.2163,-6.2169,-6.2106,-6.2013,-6.1982,-6.1969,-6.1939,-6.212,-6.212,-6.212,-6.212,-6.2433,-6.2413,-6.2427,-6.2418,-6.2402,-6.2343,-6.2371,-6.2326,-6.2271,-6.2256,-6.2222,-6.2179,-6.2168,-6.2144,-6.2126,-6.2098,-6.2315,-6.2315,-6.2315,-6.2533,-6.2508,-6.2544,-6.2492,-6.2458,-6.243,-6.2454,-6.2444,-6.2372,-6.2322,-6.2243,-6.2235,-6.2165,-6.2145,-6.2094,-6.2068,-6.2015,0,0]}]]